Find Starlink 5882

NORAD ID: 55936 Int'l Des: 2023-037 Owner: SPXS Country: US Constellation: starlink operational
LEOCIRCULAR

Live-Position

3D-Globus wird geladen...

Über Starlink 5882

Beschreibung wird geladen...

Nächste Überflüge

Passes for default location (London). Set your location on the main map for personalized predictions.

Höhenverlauf

Loading altitude history...

Zweizeiliger Elementsatz

1 55936U 23037Y 26121.73979266 -.00001910 00000-0 -15234-3 0 9995
2 55936 70.0006 130.5344 0003020 274.3279 85.7535 14.98335639172422
Epoch: 1. Mai 2026 • Age: 13 hours

Aktueller Status

Höhe 575.1 km
Geschwindigkeit 7.58 km/s
Subsatellitenpunkt 23.09°N, 177.62°E
Startdatum 17. März 2023
Alter 3.1 years
Typ internet

Technische Details

Klassifizierung Payload
Masse 305.00 kg
Trockenmasse 290.00 kg
Gesamtmasse 305.00 kg
Länge 0.20 m
Durchmesser 2.80 m
Spannweite 9.00 m
Form Box + pan
Hersteller SPXS
Bus-Typ Starlink
Phasenstatus In Orbit
Besitzer/Staat SPXS/US

Most Searched